This is the latest recevied weather packets stored in our database for station/object IZ0VWB-3. If no packets are shown the sender has not sent any weather packets the latest 10 day(s).
| Time | Temp. | Humidity | Pressure | Rain* | Wind** | Luminosity | Snow |
|---|---|---|---|---|---|---|---|
| 1777464529 | 24.44° C | 31% | 1002.4 hPa | 0 mm | - | - | - |
| 1777463929 | 23.89° C | 32% | 1002.4 hPa | 0 mm | - | - | - |
| 1777463289 | 23.89° C | 30% | 1002.4 hPa | 0 mm | - | - | - |
| 1777462690 | 23.89° C | 30% | 1002.3 hPa | 0 mm | - | - | - |
| 1777462090 | 24.44° C | 31% | 1002.5 hPa | 0 mm | - | - | - |
| 1777461488 | 24.44° C | 31% | 1002.5 hPa | 0 mm | - | - | - |
| 1777460890 | 24.44° C | 32% | 1002.6 hPa | 0 mm | - | - | - |
| 1777460288 | 23.89° C | 33% | 1002.6 hPa | 0 mm | - | - | - |
| 1777459688 | 23.33° C | 34% | 1002.7 hPa | 0 mm | - | - | - |
| 1777459089 | 22.78° C | 33% | 1002.8 hPa | 0 mm | - | - | - |
| 1777458488 | 22.78° C | 34% | 1002.8 hPa | 0 mm | - | - | - |
| 1777457889 | 22.22° C | 34% | 1002.9 hPa | 0 mm | - | - | - |
| 1777457288 | 22.22° C | 34% | 1003 hPa | 0 mm | - | - | - |
| 1777456689 | 21.67° C | 35% | 1002.9 hPa | 0 mm | - | - | - |
| 1777456088 | 21.67° C | 35% | 1002.9 hPa | 0 mm | - | - | - |
| 1777455487 | 21.67° C | 39% | 1002.8 hPa | 0 mm | - | - | - |
| 1777454888 | 21.67° C | 41% | 1002.9 hPa | 0 mm | - | - | - |
| 1777454288 | 21.11° C | 44% | 1002.9 hPa | 0 mm | - | - | - |
| 1777453685 | 20° C | 46% | 1003 hPa | 0 mm | - | - | - |
| 1777453086 | 20° C | 45% | 1003.1 hPa | 0 mm | - | - | - |
| 1777452485 | 20° C | 47% | 1003.1 hPa | 0 mm | - | - | - |
| 1777451886 | 20° C | 49% | 1003.1 hPa | 0 mm | - | - | - |
| 1777451284 | 19.44° C | 52% | 1003 hPa | 0 mm | - | - | - |
| 1777450686 | 18.33° C | 53% | 1003 hPa | 0 mm | - | - | - |
| 1777450085 | 18.33° C | 53% | 1003 hPa | 0 mm | - | - | - |
* Rain latest hour (hover to see other rain measurements)
** Current wind speed in m/s (hover to see current wind gust speed)